Tracking 28790 objects as of 19-Apr-2024
HD Live streaming from Space Station
objects crossing your sky now

OBJECT R

Track OBJECT R now!
10-day predictions


NORAD ID: 53459
Int'l Code: 2022-098R
Perigee: 439.3 km
Apogee: 444.5 km
Inclination: 97.5 °
Period: 93.3 minutes
Semi major axis: 6812 km
RCS: Unknown
Launch date: August 10, 2022
Source: People's Republic of China (PRC)
Launch site: Taiyaun Space Center, China (TSC)

Note: This is SATELLITE DEBRIS
Your satellite tracking list
Your tracking list is empty




NASA's NSSDC Master Catalog

Two Line Element Set (TLE):
1 53459U 22098R   24110.48610516  .00119908  00000-0  26090-2 0  9993
2 53459  97.5192 217.2183 0003849 272.6105  87.4702 15.43845448 94032
Source of the keplerian elements: AFSPC